When you browse on this site, cookies collect data to enhance your experience and personalize the content and advertising you see.
Visit our Privacy Policy to learn more. By continuing to use the site, you agree to this use of cookies and data.
  • In United Kingdom
  • List of Countries
  • For 7 days
  • Water Temperature
  • Satellite Maps
  • Weather Map
  • Weather Widgets
  • user-avatar
    Login

    Hourly Weather Wewak

    Today, 21 February, Thursday

    Time Temperature Precipitation Wind Pressure Humidity
    00:00 +28°C° 0 mm 7 mps 755 mmHg 84%
    01:00 +28°C° 0 mm 7 mps 755 mmHg 85%
    02:00 +27°C° 0.1 mm 7 mps 755 mmHg 86%
    03:00 +27°C° 0.1 mm 6 mps 755 mmHg 87%
    04:00 +27°C° 0 mm 6 mps 755 mmHg 88%
    05:00 +27°C° 0.4 mm 6 mps 755 mmHg 88%
    06:00 +27°C° 0.4 mm 6 mps 755 mmHg 88%
    07:00 +27°C° 0.4 mm 6 mps 755 mmHg 88%
    08:00 +29°C° 0 mm 6 mps 755 mmHg 80%
    09:00 +32°C° 0 mm 6 mps 755 mmHg 71%
    10:00 +33°C° 0 mm 5 mps 756 mmHg 64%
    11:00 +35°C° 0 mm 6 mps 755 mmHg 60%
    12:00 +36°C° 0 mm 6 mps 754 mmHg 56%
    13:00 +38°C° 0 mm 6 mps 754 mmHg 52%
    14:00 +38°C° 0 mm 7 mps 753 mmHg 54%
    15:00 +36°C° 0 mm 7 mps 753 mmHg 55%
    16:00 +36°C° 0 mm 7 mps 752 mmHg 57%
    17:00 +34°C° 0 mm 8 mps 752 mmHg 65%
    18:00 +32°C° 0 mm 8 mps 753 mmHg 73%
    19:00 +29°C° 0 mm 8 mps 753 mmHg 81%
    20:00 +29°C° 0 mm 8 mps 753 mmHg 81%
    21:00 +29°C° 0 mm 7 mps 754 mmHg 82%
    22:00 +29°C° 0 mm 7 mps 755 mmHg 82%
    23:00 +28°C° 0.2 mm 7 mps 755 mmHg 85%

    Tomorrow, 22 February, Friday

    Time Temperature Precipitation Wind Pressure Humidity
    00:00 +28°C° 0.2 mm 6 mps 755 mmHg 88%
    01:00 +28°C° 0.2 mm 6 mps 755 mmHg 90%
    02:00 +27°C° 0.6 mm 6 mps 754 mmHg 91%
    03:00 +27°C° 0.6 mm 5 mps 754 mmHg 93%
    04:00 +27°C° 0.6 mm 5 mps 754 mmHg 94%
    05:00 +27°C° 0.5 mm 5 mps 754 mmHg 94%
    06:00 +27°C° 0.5 mm 4 mps 754 mmHg 94%
    07:00 +27°C° 0.5 mm 4 mps 754 mmHg 94%
    08:00 +29°C° 0.2 mm 4 mps 754 mmHg 85%
    09:00 +30°C° 0.2 mm 4 mps 754 mmHg 77%
    10:00 +33°C° 0.2 mm 4 mps 755 mmHg 69%
    11:00 +34°C° 0 mm 4 mps 754 mmHg 63%
    12:00 +36°C° 0 mm 4 mps 754 mmHg 58%
    13:00 +37°C° 0 mm 4 mps 753 mmHg 53%
    14:00 +36°C° 0.2 mm 5 mps 753 mmHg 58%
    15:00 +35°C° 0.2 mm 6 mps 752 mmHg 63%
    16:00 +34°C° 0.2 mm 6 mps 752 mmHg 68%
    17:00 +33°C° 0.4 mm 6 mps 752 mmHg 76%
    18:00 +30°C° 0.4 mm 6 mps 752 mmHg 84%
    19:00 +28°C° 0.4 mm 6 mps 753 mmHg 91%
    20:00 +28°C° 0.1 mm 6 mps 753 mmHg 91%
    21:00 +28°C° 0.1 mm 6 mps 754 mmHg 91%
    22:00 +28°C° 0.1 mm 6 mps 754 mmHg 91%
    23:00 +28°C° 0.9 mm 6 mps 754 mmHg 92%

    Day after tomorrow, 23 February, Saturday

    Time Temperature Precipitation Wind Pressure Humidity
    00:00 +28°C° 0.9 mm 6 mps 754 mmHg 92%
    01:00 +27°C° 0.9 mm 6 mps 754 mmHg 93%
    02:00 +27°C° 2.4 mm 6 mps 754 mmHg 94%
    03:00 +27°C° 2.4 mm 5 mps 753 mmHg 94%
    04:00 +27°C° 2.4 mm 4 mps 753 mmHg 95%
    05:00 +27°C° 1 mm 4 mps 753 mmHg 95%
    06:00 +27°C° 1 mm 3 mps 754 mmHg 95%
    07:00 +27°C° 1 mm 2 mps 754 mmHg 94%
    08:00 +27°C° 1.2 mm 2 mps 755 mmHg 93%
    09:00 +28°C° 1.2 mm 2 mps 755 mmHg 92%
    10:00 +29°C° 1.2 mm 1 mps 755 mmHg 91%
    11:00 +30°C° 0.8 mm 1 mps 755 mmHg 83%
    12:00 +32°C° 0.8 mm 1 mps 754 mmHg 74%
    13:00 +34°C° 0.8 mm 1 mps 754 mmHg 65%
    14:00 +34°C° 0.5 mm 1 mps 753 mmHg 65%
    15:00 +34°C° 0.5 mm 2 mps 752 mmHg 66%
    16:00 +34°C° 0.5 mm 3 mps 752 mmHg 66%
    17:00 +31°C° 0.1 mm 3 mps 752 mmHg 73%
    18:00 +30°C° 0.1 mm 3 mps 753 mmHg 80%
    19:00 +28°C° 0.1 mm 2 mps 753 mmHg 88%
    20:00 +28°C° 0 mm 2 mps 754 mmHg 88%
    21:00 +27°C° 0 mm 2 mps 755 mmHg 89%
    22:00 +27°C° 0 mm 2 mps 755 mmHg 90%
    23:00 +27°C° 0 mm 2 mps 755 mmHg 90%

    24 February, Sunday

    Time Temperature Precipitation Wind Pressure Humidity
    00:00 +27°C° 0 mm 2 mps 755 mmHg 90%
    01:00 +27°C° 0 mm 1 mps 755 mmHg 90%
    02:00 +26°C° 0 mm 1 mps 755 mmHg 91%
    03:00 +26°C° 0 mm 1 mps 754 mmHg 92%
    04:00 +26°C° 0 mm 1 mps 754 mmHg 92%
    05:00 +26°C° 0 mm 1 mps 755 mmHg 93%
    06:00 +26°C° 0 mm 1 mps 755 mmHg 94%
    07:00 +26°C° 0 mm 1 mps 756 mmHg 95%
    08:00 +28°C° 0 mm 1 mps 756 mmHg 88%
    09:00 +29°C° 0 mm 1 mps 757 mmHg 81%
    10:00 +31°C° 0 mm 1 mps 757 mmHg 74%
    11:00 +32°C° 0 mm 2 mps 756 mmHg 67%
    12:00 +34°C° 0 mm 2 mps 756 mmHg 61%
    13:00 +35°C° 0 mm 2 mps 755 mmHg 55%
    14:00 +34°C° 0 mm 2 mps 754 mmHg 58%
    15:00 +34°C° 0 mm 2 mps 754 mmHg 60%
    16:00 +34°C° 0 mm 2 mps 753 mmHg 62%
    17:00 +31°C° 0 mm 2 mps 754 mmHg 69%
    18:00 +30°C° 0 mm 2 mps 754 mmHg 76%
    19:00 +28°C° 0 mm 2 mps 755 mmHg 83%
    20:00 +28°C° 0 mm 2 mps 755 mmHg 85%
    21:00 +27°C° 0 mm 1 mps 756 mmHg 87%
    22:00 +27°C° 0 mm 1 mps 757 mmHg 89%
    23:00 +27°C° 0.2 mm 1 mps 756 mmHg 91%

    25 February, Monday

    Time Temperature Precipitation Wind Pressure Humidity
    00:00 +26°C° 0.2 mm 1 mps 756 mmHg 93%
    01:00 +26°C° 0.2 mm 1 mps 756 mmHg 94%
    02:00 +26°C° 0.4 mm 1 mps 755 mmHg 95%
    03:00 +26°C° 0.4 mm 1 mps 755 mmHg 96%
    04:00 +26°C° 0.4 mm 1 mps 755 mmHg 96%
    05:00 +26°C° 0 mm 1 mps 755 mmHg 96%
    06:00 +26°C° 0 mm 1 mps 756 mmHg 96%
    07:00 +26°C° 0 mm 1 mps 756 mmHg 96%
    08:00 +28°C° 0 mm 1 mps 757 mmHg 86%
    09:00 +30°C° 0 mm 1 mps 757 mmHg 76%
    10:00 +32°C° 0 mm 1 mps 757 mmHg 66%
    11:00 +35°C° 0 mm 2 mps 757 mmHg 60%
    12:00 +36°C° 0 mm 2 mps 756 mmHg 54%
    13:00 +37°C° 0 mm 2 mps 755 mmHg 48%
    14:00 +36°C° 0 mm 3 mps 754 mmHg 50%
    15:00 +36°C° 0 mm 3 mps 754 mmHg 53%
    16:00 +35°C° 0 mm 3 mps 753 mmHg 55%
    17:00 +33°C° 0 mm 3 mps 754 mmHg 64%
    18:00 +30°C° 0 mm 3 mps 754 mmHg 73%
    19:00 +28°C° 0 mm 2 mps 755 mmHg 82%
    20:00 +28°C° 0 mm 2 mps 756 mmHg 84%
    21:00 +28°C° 0 mm 2 mps 756 mmHg 87%
    22:00 +27°C° 0 mm 2 mps 757 mmHg 89%
    23:00 +27°C° 0.3 mm 2 mps 757 mmHg 92%

    26 February, Tuesday

    Time Temperature Precipitation Wind Pressure Humidity
    00:00 +27°C° 0.3 mm 2 mps 756 mmHg 94%
    01:00 +26°C° 0.3 mm 1 mps 756 mmHg 97%
    02:00 +26°C° 0.4 mm 1 mps 756 mmHg 97%
    03:00 +24°C° 0.4 mm 0 mps 756 mmHg 97%
    04:00 +24°C° 0.4 mm 0 mps 756 mmHg 98%
    05:00 +24°C° 0.3 mm 0 mps 756 mmHg 98%
    06:00 +24°C° 0.3 mm 0 mps 756 mmHg 98%
    07:00 +24°C° 0.3 mm 0 mps 757 mmHg 98%
    08:00 +28°C° 0 mm 1 mps 757 mmHg 87%
    09:00 +31°C° 0 mm 1 mps 757 mmHg 76%
    10:00 +33°C° 0 mm 1 mps 757 mmHg 65%
    11:00 +34°C° 0 mm 1 mps 756 mmHg 61%
    12:00 +35°C° 0 mm 2 mps 756 mmHg 58%
    13:00 +36°C° 0 mm 2 mps 755 mmHg 54%
    14:00 +35°C° 0 mm 3 mps 754 mmHg 57%
    15:00 +35°C° 0 mm 3 mps 754 mmHg 60%
    16:00 +34°C° 0 mm 3 mps 753 mmHg 62%
    17:00 +33°C° 0 mm 3 mps 754 mmHg 70%
    18:00 +30°C° 0 mm 2 mps 754 mmHg 77%
    19:00 +28°C° 0 mm 2 mps 755 mmHg 84%
    20:00 +28°C° 0 mm 2 mps 756 mmHg 85%
    21:00 +28°C° 0 mm 2 mps 756 mmHg 87%
    22:00 +27°C° 0 mm 2 mps 757 mmHg 88%
    23:00 +27°C° 0 mm 2 mps 756 mmHg 90%
    Show more